Weather History for Glasgow, KY

Change the Weather History Date:

Wednesday, October 10, 2012

  Actual Average Record
Temperature  
Mean Temperature 50 °F -  
Max Temperature 62 °F 70 °F 87 °F (2010)
Min Temperature 36 °F 46 °F 30 °F (1964)
Degree Days  
Heating Degree Days 16    
Moisture  
Dew Point 41 °F    
Average Humidity 70    
Maximum Humidity 100    
Minimum Humidity 33    
Precipitation  
Precipitation 0.00 in - - ()
Sea Level Pressure  
Sea Level Pressure 30.14 in    
Wind  
Wind Speed 3 mph (WNW)    
Max Wind Speed 12 mph    
Max Gust Speed 17 mph    
Visibility 10 miles    
Events      
Averages and records for this station are not official NWS values.
T = Trace of Precipitation, MM = Missing Value Source: NWS Daily Summary

Daily Weather History Graph

Daily Weather History Graph

Search for Another Location

Airport:

Trip Planner

Search our weather history database for the weather conditions in past years. The results will help you decide how hot, cold, wet, or windy it might be!

Date:

Astronomy

Oct. 10, 2012 Rise Set
Actual Time 6:47 AM CDT 6:13 PM CDT
Civil Twilight 6:21 AM CDT 6:39 PM CDT
Nautical Twilight 5:51 AM CDT 7:09 PM CDT
Astronomical Twilight 5:21 AM CDT 7:39 PM CDT
Moon 1:30 AM CDT (10/10) 3:09 PM CDT (10/10)
Length of Visible Light 12h 17m
Length of Day
11h 25m
Waning Crescent, 27% of the Moon is Illuminated
Oct 10
Waning Crescent
Oct 15
New
Oct 21
First Quarter
Oct 29
Full
Nov 6
Last Quarter

Hourly Weather History & Observations

Time (CDT) Temp. Windchill Dew Point Humidity Pressure Visibility Wind Dir Wind Speed Gust Speed Precip Events Conditions
12:15 AM 47.1 °F - 42.6 °F 84% 30.02 in 10.0 mi Calm Calm - N/A   Clear
12:35 AM 46.9 °F - 42.4 °F 84% 30.02 in 10.0 mi Calm Calm - N/A   Clear
12:55 AM 45.9 °F - 43.5 °F 92% 30.02 in 10.0 mi Calm Calm - N/A   Clear
1:15 AM 46.0 °F - 46.0 °F 100% 30.03 in 10.0 mi Calm Calm - N/A   Clear
1:35 AM 45.7 °F - 45.7 °F 100% 30.02 in 10.0 mi Calm Calm - N/A   Clear
1:55 AM 46.0 °F - 46.0 °F 100% 30.03 in 10.0 mi Calm Calm - N/A   Clear
2:15 AM 46.0 °F - 46.0 °F 100% 30.03 in 10.0 mi Calm Calm - N/A   Clear
2:35 AM 46.2 °F - 46.2 °F 100% 30.03 in 10.0 mi Calm Calm - N/A   Clear
3:15 AM 47.1 °F - 47.1 °F 100% 30.03 in 10.0 mi Calm Calm - N/A   Overcast
3:35 AM 48.2 °F - 48.2 °F 100% 30.04 in 10.0 mi Calm Calm - N/A   Overcast
3:55 AM 48.6 °F - 48.6 °F 100% 30.04 in 10.0 mi Calm Calm - N/A   Overcast
4:15 AM 49.1 °F - 49.1 °F 100% 30.04 in 10.0 mi Calm Calm - N/A   Overcast
4:35 AM 49.5 °F - 49.5 °F 100% 30.04 in 10.0 mi Calm Calm - N/A   Overcast
4:55 AM 49.8 °F - 49.8 °F 100% 30.04 in 10.0 mi WSW 3.5 mph - N/A   Overcast
5:15 AM 50.2 °F - 50.2 °F 100% 30.05 in 10.0 mi WSW 3.5 mph - N/A   Overcast
5:35 AM 50.7 °F - 50.7 °F 100% 30.06 in 10.0 mi SW 3.5 mph - N/A   Overcast
5:55 AM 51.1 °F - 50.5 °F 98% 30.06 in 10.0 mi Calm Calm - N/A   Overcast
6:15 AM 51.6 °F - 50.4 °F 95% 30.06 in 10.0 mi SSW 3.5 mph - N/A   Overcast
6:35 AM 52.2 °F - 50.2 °F 93% 30.07 in 10.0 mi Calm Calm - N/A   Overcast
6:55 AM 52.0 °F - 51.4 °F 98% 30.07 in 10.0 mi WSW 3.5 mph - N/A   Overcast
7:15 AM 52.2 °F - 50.7 °F 95% 30.08 in 10.0 mi Calm Calm - N/A   Overcast
7:35 AM 52.9 °F - 51.1 °F 94% 30.09 in 10.0 mi WSW 5.8 mph - N/A   Overcast
7:55 AM 53.8 °F - 49.6 °F 86% 30.10 in 10.0 mi West 6.9 mph - N/A   Overcast
8:15 AM 54.3 °F - 48.2 °F 80% 30.11 in 10.0 mi West 4.6 mph - N/A   Overcast
8:35 AM 54.3 °F - 47.5 °F 78% 30.12 in 10.0 mi West 5.8 mph - N/A   Overcast
9:15 AM 54.0 °F - 46.9 °F 77% 30.14 in 10.0 mi WNW 8.1 mph - N/A   Overcast
9:35 AM 53.8 °F - 46.9 °F 78% 30.14 in 10.0 mi WNW 6.9 mph - N/A   Overcast
9:55 AM 54.0 °F - 46.9 °F 77% 30.15 in 10.0 mi NW 8.1 mph - N/A   Overcast
10:15 AM 54.0 °F - 46.0 °F 75% 30.15 in 10.0 mi WNW 5.8 mph - N/A   Overcast
10:35 AM 54.5 °F - 43.9 °F 67% 30.15 in 10.0 mi WNW 5.8 mph - N/A   Overcast
10:55 AM 54.7 °F - 42.4 °F 63% 30.16 in 10.0 mi WNW 4.6 mph - N/A   Overcast
11:15 AM 55.2 °F - 42.3 °F 62% 30.16 in 10.0 mi WNW 8.1 mph - N/A   Overcast
11:35 AM 55.6 °F - 41.0 °F 58% 30.17 in 10.0 mi WNW 9.2 mph - N/A   Overcast
11:55 AM 57.0 °F - 39.6 °F 52% 30.18 in 10.0 mi WNW 11.5 mph 16.1 mph N/A   Mostly Cloudy
12:15 PM 58.5 °F - 38.1 °F 47% 30.17 in 10.0 mi West 11.5 mph - N/A   Scattered Clouds
12:35 PM 59.7 °F - 38.1 °F 45% 30.17 in 10.0 mi WNW 5.8 mph - N/A   Clear
12:55 PM 61.2 °F - 37.9 °F 42% 30.16 in 10.0 mi NW 6.9 mph - N/A   Clear
1:15 PM 61.7 °F - 37.8 °F 41% 30.16 in 10.0 mi NW 6.9 mph 16.1 mph N/A   Clear
1:35 PM 61.5 °F - 37.2 °F 41% 30.16 in 10.0 mi NNW 5.8 mph - N/A   Clear
1:55 PM 62.2 °F - 37.6 °F 40% 30.16 in 10.0 mi WNW 10.4 mph 17.3 mph N/A   Clear
2:15 PM 62.1 °F - 36.9 °F 39% 30.16 in 10.0 mi West 6.9 mph - N/A   Clear
2:35 PM 62.1 °F - 34.9 °F 36% 30.16 in 10.0 mi WNW 11.5 mph 16.1 mph N/A   Clear
2:55 PM 61.5 °F - 33.4 °F 35% 30.16 in 10.0 mi NW 9.2 mph - N/A   Clear
3:15 PM 61.5 °F - 32.7 °F 34% 30.17 in 10.0 mi WNW 9.2 mph - N/A   Clear
3:35 PM 61.5 °F - 32.4 °F 33% 30.17 in 10.0 mi WNW 8.1 mph 16.1 mph N/A   Clear
3:55 PM 61.3 °F - 32.7 °F 34% 30.17 in 10.0 mi West 11.5 mph 17.3 mph N/A   Clear
4:15 PM 60.6 °F - 33.3 °F 36% 30.17 in 10.0 mi WNW 6.9 mph - N/A   Clear
4:35 PM 60.3 °F - 32.2 °F 35% 30.18 in 10.0 mi WNW 8.1 mph - N/A   Clear
4:55 PM 59.5 °F - 31.6 °F 35% 30.18 in 10.0 mi WNW 6.9 mph - N/A   Clear
5:15 PM 59.0 °F - 31.8 °F 36% 30.18 in 10.0 mi West 5.8 mph - N/A   Clear
5:35 PM 58.1 °F - 32.0 °F 37% 30.18 in 10.0 mi WNW 6.9 mph - N/A   Clear
5:55 PM 56.8 °F - 32.0 °F 39% 30.18 in 10.0 mi NW 3.5 mph - N/A   Clear
6:15 PM 54.5 °F - 32.2 °F 43% 30.19 in 10.0 mi NW 3.5 mph - N/A   Clear
6:35 PM 52.5 °F - 32.5 °F 47% 30.20 in 10.0 mi Calm Calm - N/A   Clear
6:55 PM 49.8 °F - 33.6 °F 54% 30.21 in 10.0 mi NNW 4.6 mph - N/A   Clear
7:15 PM 48.4 °F - 33.1 °F 56% 30.21 in 10.0 mi Calm Calm - N/A   Clear
7:35 PM 48.0 °F - 32.9 °F 56% 30.22 in 10.0 mi North 3.5 mph - N/A   Clear
7:55 PM 46.6 °F - 33.6 °F 61% 30.22 in 10.0 mi NNW 3.5 mph - N/A   Clear
8:15 PM 45.1 °F - 34.0 °F 65% 30.23 in 10.0 mi Calm Calm - N/A   Clear
8:35 PM 44.8 °F 43.3 °F 33.8 °F 65% 30.23 in 10.0 mi North 3.5 mph - N/A   Clear
8:55 PM 44.2 °F - 34.0 °F 67% 30.24 in 10.0 mi Calm Calm - N/A   Clear
9:15 PM 43.9 °F 42.3 °F 33.8 °F 68% 30.24 in 10.0 mi North 3.5 mph - N/A   Clear
9:35 PM 42.3 °F - 34.2 °F 73% 30.25 in 10.0 mi Calm Calm - N/A   Clear
10:15 PM 41.0 °F - 34.5 °F 78% 30.26 in 10.0 mi Calm Calm - N/A   Clear
10:35 PM 40.1 °F - 33.3 °F 77% 30.26 in 10.0 mi Calm Calm - N/A   Clear
10:55 PM 39.6 °F - 34.5 °F 82% 30.26 in 10.0 mi Calm Calm - N/A   Clear
11:35 PM 37.4 °F - 34.0 °F 87% 30.26 in 10.0 mi Calm Calm - N/A   Clear
11:55 PM 36.9 °F - 34.5 °F 91% 30.26 in 10.0 mi Calm Calm - N/A   Clear